Miscellaneous Local Product
Issued by NWS North Platte, NE

Home | Current Version | Previous Version | Text Only | Print | Product List | Glossary On
Versions: 1 2 3 4 5 6 7 8 9 10 11 12 13 14 15 16 17 18 19 20 21 22 23 24 25 26 27 28 29 30 31 32 33 34 35 36 37 38 39 40 41 42 43 44 45 46 47 48 49 50
000
AXUS43 KLBF 302110
MISLBF


WESTERN AND NORTH CENTRAL NEBRASKA HOURLY WEATHER ROUNDUP
NATIONAL WEATHER SERVICE NORTH PLATTE NE
400 PM CDT MON MAR 30 2015

***STATIONS NOT REPORTING VARIABLES SUCH AS SKY/WEATHER OR
PRESSURE ARE PROVIDED BY THE NEBRASKA DEPARTMENT OF
ROADS...RAWS...AND APRS NETWORKS...AND ARE NOT UNDER
NATIONAL WEATHER SERVICE QUALITY CONTROL***

...OBSERVATIONS IN AND NEAR THE EASTERN PANHANDLE OF NEBRASKA...

CITY           SKY/WX    TMP DP  RH WIND       PRES   REMARKS
PINE RIDGE     SUNNY     69  26  20 N9        30.04F
CHADRON        SUNNY     70  28  21 W14G28    30.04F
ALLIANCE       MOSUNNY   68  25  19 NW17      30.06F
SIDNEY         SUNNY     71  25  17 NW17G26   30.09F
WHITECLAY        N/A     69  28  22 CALM        N/A
CRESCENT LAKE    N/A     71  21  15 NW14G25     N/A
BIG SPRINGS      N/A     73  23  15 NW10        N/A
$$

...OBSERVATIONS IN NORTH CENTRAL NEBRASKA...

CITY           SKY/WX    TMP DP  RH WIND       PRES   REMARKS
VALENTINE      SUNNY     72  28  19 NW15G25   29.99F
THEDFORD       PTSUNNY   71  26  18 N12G21    30.01S
AINSWORTH      SUNNY     72  26  18 NW20G26   29.99S
O`NEILL        SUNNY     74  28  18 NW22G31   29.95S
ORD            PTSUNNY   76  22  13 W12G18    29.94F
BROKEN BOW     MOSUNNY   76  23  14 NW15G29   29.97F
BROWNLEE         N/A     75  29  18 NW20        N/A
SPRINGVIEW       N/A     73  33  23 W13G25      N/A
BREWSTER         N/A     75  25  15 S18         N/A
ROSE             N/A     75  28  18 SW15        N/A
NEWPORT          N/A     74  28  18 NW20        N/A
SARGENT          N/A     75  23  14 W8G15       N/A
COMSTOCK         N/A     82  18   9 S14         N/A
EWING            N/A     76  29  18 NW14G24     N/A
$$

...OBSERVATIONS IN SOUTHWEST NEBRASKA AND FAR NORTHEAST COLORADO...

CITY           SKY/WX    TMP DP  RH WIND       PRES   REMARKS
WRAY           FAIR      78  16  10 NW9G22    30.04F
IMPERIAL         N/A     77  16  10 NW14G22   30.02F
OGALLALA       SUNNY     75  24  15 N8G18     30.02F
NORTH PLATTE   SUNNY     78  21  12 NW21G26   29.98F
MCCOOK         SUNNY     81  20  10 N14G22    29.97F
LEXINGTON      SUNNY     77  23  13 NW10G18   29.97S
PAXTON           N/A     75  23  14 CALM        N/A
SUTHERLAND       N/A     80  13   8 NW13        N/A
BRADY            N/A     77  26  15 CALM        N/A
GOTHENBURG       N/A     76  24  14 NW6         N/A
CALLAWAY         N/A     74  25  16 NW13        N/A
$$

...NORTH PLATTE AREA...

CITY           SKY/WX    TMP DP  RH WIND       PRES   REMARKS
AIRPORT        SUNNY     78  21  12 NW21G26   29.98F
DOWNTOWN         N/A     76  20  12 NW7G15      N/A
$$

...SOME WEATHER OBSERVATIONS FROM AROUND THE REGION...

CITY           SKY/WX    TMP DP  RH WIND       PRES   REMARKS
DENVER         MOSUNNY   72  24  16 NE9       30.09F
LARAMIE        SUNNY     61  16  17 W21G31    30.18F
CHEYENNE       MOSUNNY   65  18  16 NW16G24   30.12F
SCOTTSBLUFF    MOSUNNY   71  24  17 W7G24     30.08F
RAPID CITY     SUNNY     66  29  24 N22       30.01F
PIERRE         SUNNY     73  26  17 NW26G35   29.91F
WINNER         FAIR      74  27  17 NW21G31   29.95F
SIOUX FALLS    CLOUDY    74  27  17 NW25G35   29.83S
OMAHA          PTSUNNY   77  31  18 SW17G28   29.90F
GRAND ISLAND   PTSUNNY   76  26  15 NW8       29.96F
KANSAS CITY    MOSUNNY   72  31  22 SW17G24   30.00F
WICHITA        MOSUNNY   76  37  24 S20G30    30.01F
HAYS           SUNNY     84  32  15 W18       29.93F
LIBERAL        SUNNY     81  36  19 SW23G30   30.01F
GOODLAND       SUNNY     78  17  10 N14G23    30.02F
$$



USA.gov is the U.S. government's official web portal to all federal, state and local government web resources and services.